This is the latest recevied weather packets stored in our database for station/object K7GFH-13. If no packets are shown the sender has not sent any weather packets the latest 10 day(s).
| Time | Temp. | Humidity | Pressure | Rain* | Wind** | Luminosity | Snow |
|---|---|---|---|---|---|---|---|
| 1777579933 | 25.56° C | 27% | 1018.7 hPa | 0 mm | - | 735 W/m² | - |
| 1777579028 | 25° C | 30% | 1018.9 hPa | 0 mm | - | 760 W/m² | - |
| 1777578124 | 23.89° C | 31% | 1018.9 hPa | 0 mm | - | 727 W/m² | - |
| 1777577225 | 24.44° C | 28% | 1019 hPa | 0 mm | - | 329 W/m² | - |
| 1777576323 | 25° C | 36% | 1019.1 hPa | 0 mm | - | 853 W/m² | - |
| 1777575424 | 23.89° C | 37% | 1019.3 hPa | 0 mm | - | 635 W/m² | - |
| 1777574520 | 23.33° C | 38% | 1019.4 hPa | 0 mm | - | 727 W/m² | - |
| 1777573616 | 21.11° C | 43% | 1019.6 hPa | 0 mm | - | 313 W/m² | - |
| 1777572716 | 21.11° C | 46% | 1019.9 hPa | 0 mm | - | 316 W/m² | - |
| 1777571814 | 20.56° C | 46% | 1019.9 hPa | 0 mm | - | 303 W/m² | - |
| 1777570909 | 20.56° C | 52% | 1020 hPa | 0 mm | - | 284 W/m² | - |
| 1777570009 | 20° C | 51% | 1020 hPa | 0 mm | - | 505 W/m² | - |
| 1777569104 | 19.44° C | 54% | 1020.1 hPa | 0 mm | - | 543 W/m² | - |
| 1777568201 | 17.78° C | 55% | 1020.4 hPa | 0 mm | - | 517 W/m² | - |
| 1777567297 | 17.22° C | 60% | 1020.4 hPa | 0 mm | - | 371 W/m² | - |
| 1777566397 | 16.67° C | 59% | 1020.4 hPa | 0 mm | - | 380 W/m² | - |
| 1777565497 | 15.56° C | 61% | 1020.4 hPa | 0 mm | - | 359 W/m² | - |
| 1777564596 | 16.67° C | 57% | 1020.6 hPa | 0 mm | - | 257 W/m² | - |
| 1777563696 | 13.89° C | 65% | 1020.9 hPa | 0 mm | - | 208 W/m² | - |
| 1777562794 | 12.78° C | 68% | 1021 hPa | 0 mm | - | 235 W/m² | - |
| 1777561894 | 13.33° C | 67% | 1020.9 hPa | 0 mm | - | 167 W/m² | - |
| 1777560992 | 13.33° C | 61% | 1021.1 hPa | 0 mm | - | 132 W/m² | - |
| 1777560089 | 12.78° C | 62% | 1021 hPa | 0 mm | - | 143 W/m² | - |
| 1777559185 | 12.78° C | 59% | 1020.7 hPa | 0 mm | - | 100 W/m² | - |
| 1777558282 | 11.67° C | 62% | 1020.6 hPa | 0 mm | - | 71 W/m² | - |
* Rain latest hour (hover to see other rain measurements)
** Current wind speed in m/s (hover to see current wind gust speed)